Погода в Нахчиване

Погода в Нахчиване : погода сейчас, прогноз погоды и архив. Всё, что Вы хотите узнать о погоде в Нахчиване!

Поиск расширенной информации на нашем сайте:

Другие новости

Новости СМИ2

Главная страница сайта

Новости сайта

02.10.2013

Напоминаем, что на нашем новом сайте вы можете получить высокодетализированные прогнозы погоды по пунктам России, СНГ и мира (включающие важные для авиации метеовеличины, такие как направление и скорость ветра, видимость, явления погоды, количество и форма облачности, нижняя и верхняя граница облачности), а также ознакомиться с разнообразными материалами по авиационной метеорологии и подборкой полезных ссылок на эту тему.

Сайт Метеоцентр.Азия посвящён разработке технологий оптимизации авиаметеорологического обслуживания, включая проектирование и перспективное создание нескольких автоматизированных авиаметеорологических систем:
- система выпуска высокодетальных прогностических карт явлений погоды для нижнего воздушного пространства по России и ближнему зарубежью;
- система верификации прогнозов TAF (выпускаемых синоптиками официальных АМСГ РФ и ближнего зарубежья) и AUTOTAF (выпускаемых сайтом Метеоцентр.Азия) - выявление ошибок, онлайн-сопоставление с фактической погодой METAR, автоматическое внесение коррективов в прогнозы при резком отклонении фактической погоды от прогноза, подсчёт оправдываемости прогнозов по элементам и в целом;
- система обработки, анализа и отображения авиаметеорологической информации для применения провайдерами метеорологической информации.


Погода в Нахчиване - сегодня

Время (UTC), дата Ветер
(°,м/с) 
Видим.   Явления Облачность Т
(°С)
Тd
(°С)
f(%) Тe
(°С)
Pmin
(гПа)
dP
(гПа)
Po
(мм)
O2
(г/м3)
Тmin Tmax R s Состояние
почвы
00 24.06.17 200 (Ю) н/о  зарница  3/3 600 м кучево-дожд. 
[Cb cap]
+16 +8.8 62 +18  1013.6  686  259           
06 24.06.17 тихо ()   20000 м  {ливн. осадки}  3/3 1000 м 
[Cu hum]
+24 +10.7 43 +28  1012  0.6  687  252           
09 24.06.17 180 (Ю) 20000 м    3/3 1000 м 
[Cu med, cong]
+27.8 +10.7 34 +32  1009.7  -1  686  249           
12 24.06.17 290 (З) 20000 м    3/3 1000 м 
[Cu med, cong]
+30 +10.2 29 +33  1006.9  -1.9  684  247           
15 24.06.17 тихо ()   20000 м    3/3 1000 м 
[Cu med, cong]
+31.2 +8.4 24 +32  1004.5  -1.9  683  245           
18 24.06.17 180 (Ю) н/о    3/3 1000 м 
[Cu med, cong]
+21.8 +11.2 51 +27  1007.7  0.3  683  253    +32       
21 24.06.17 190 (Ю) н/о    4/3 1000 м средняя 
[Cu med, cong|Ac trans]
+18.4 +10.9 62 +23  1009.6  0.5  684  256           
00 25.06.17 180 (Ю) н/о    4/0 средняя 
[Cu med, cong|Ac trans]
+16.6 +9.5 63 +19  1010.7  0.1  684  258           
03 25.06.17 090 (В) 20000 м  {ливн. осадки}  8/3 600 м кучево-дожд., средняя 
[Cb cap|Ac trans]
+18.6 +13.3 71 +28  1010.1  0.6  684  255      0.0     
06 25.06.17 180 (Ю) 20000 м  {ливн. осадки}  4/3 1000 м средняя 
[Cu med, cong|Ac trans]
+25.4 +11.8 43 +31  1009.6  1.6  685  250           
09 25.06.17 180 (Ю) 20000 м    3/3 1000 м 
[Cu med, cong]
+30 +11.7 32 +36  1007.3  -0.7  685  246           
12 25.06.17 220 (ЮЗ) 20000 м    3/3 1000 м 
[Cu med, cong]
+32.2 +10.6 27 +36  1005  -1.6  684  244           
15 25.06.17 220 (ЮЗ) 20000 м    3/3 1000 м 
[Cu med, cong]
+31.4 +9.5 26 +34  1003.7  -1.3  683  245           
21 25.06.17 тихо ()   н/о    ясно 
+21 +12.7 59 +28  1011.2  1.2  686  254           
00 26.06.17 тихо ()   н/о    ясно 
+19 +12.4 66 +26  1012.6  0.6  686  256           
03 26.06.17 270 (З) 20000 м    3/0 средняя 
[Ac trans]
+17.6 +12.6 72 +25  1014.9  1.6  687  258           
09 26.06.17 180 (Ю) 20000 м    3/3 1000 м 
[Cu hum]
+30.8 +11.9 31 +37  1009.1  -1  686  246           
12 26.06.17 170 (Ю) 20000 м    3/3 1000 м 
[Cu med, cong]
+33.2 +11 26 +38  1006.3  -1.8  685  244           
15 26.06.17 170 (Ю) 20000 м    3/3 1000 м 
[Cu med, cong]
+31.8 +11 28 +36  1006.7  -1  684  245           
21 26.06.17 900 () 14  н/о    ясно 
+24.8 +11.9 44 +31  1010.3  686  251           
00 27.06.17 900 () 14  н/о    ясно 
+22 +10.3 47 +25  1012.4  686  254           
03 27.06.17 120 (ЮВ) 20000 м    ясно 
+17.4 +12.3 72 +25  1014.7  0.6  687  258           
09 27.06.17 тихо ()   20000 м    6/0 
+31.8 +12.5 31 +39  1007.6  -1.5  685  245           
12 27.06.17 160 (Ю) 20000 м    ясно 
+36.2 +11.9 23 +42  1003.9  -2.2  684  241           
15 27.06.17 тихо ()   20000 м    ясно 
+36.4 +12.7 24 +44  1008.1  -1.7  683  240           
Время (UTC), дата Ветер
(°,м/с) 
Видим.   Явления Облачность Т
(°С)
Тd
(°С)
f(%) Тe
(°С)
Pmin
(гПа)
dP
(гПа)
Po
(мм)
O2
(г/м3)
Тmin Tmax R s Состояние
почвы

Для получения пояснительной информации подведите курсор к названию столбца.

ПОГОДА в Нахчиване - архив

Всё, что Вы хотите узнать о погоде в Нахчиване - удобно и подробно!

Выберите нужную дату (начиная с 1 января 2015* года) и нажмите кнопку "Найти".
Будут отображены архивные сводки погоды по пункту Нахчиван, начиная с указанной даты.


Отображать данные в формате CSV (для использования в таблицах Excel)


Внимание! Наш архив погоды предназначен исключительно для личного некоммерческого использования в познавательных целях. Если Вам необходимы официальные справки о состоянии погоды (для производственных, юридических, коммерческих и т.п. целей), обращайтесь в органы Росгидромета.

*Примечание: данная дата относится к архиву по метеостанциям СССР (Россия, СНГ, Балтия).
Архив по метеостанциям Зарубежной Европы и Азии (кроме Китая) хранится 10 дней, по другим регионам земного шара (Китай, Африка, Америка, Австралия, Океания) - 1 день.

Нахчиван - район местоположения метеостанции


Название, широта, долгота, высота метеостанции:
Нахчиван 39.2°ш. 45.4°д. 873 м над ур. моря [Азербайджан]

Дополнительная информация

В oтличие oт бoльшинства пoгoдных сайтoв мы публикуем пoдрoбную метеoинфoрмацию в детальнoм прoфессиoнальнoм фoрмате.

Характеристики температуры и влажнoсти вoздуха измеряются на высoте 2 м в тени вдали oт зданий и деревьев.
Скoрoсть ветра измеряется на высoте 10 м (на урoвне рoста челoвека скoрoсть ветра ниже в 1.5-2 раза). Если метеoстанция нахoдится в гoрoде или в лесу, тo скoрoсть ветра занижена на 2-4 м/с пo сравнению с oткрытым местoм. Скoрoсть ветра над акватoриями крупных рек и oзёр, а также на вершинах хoлмoв на 2-5 м/с выше, чем в oбычных услoвиях.
Атмoсфернoе давление в разных тoчках местнoсти мoжет значительнo oтличаться oт давления на метеoстанции, в зависимoсти oт услoвий рельефа (при пoдъёме на 10 м давление пoнижается примернo на 1 мм рт.ст.).